User: anonymous   Login
Location: Unspecified
(0.0000°N, 0.0000°E)
Time: 04:37:40
(UTC+00:00)
Language:

GRIFEX - Orbit

View from above orbital plane
View from above orbital plane
View from above satellite
View from above satellite

Ground track
Ground track

The orbit data is extracted from the following two-line orbital elements,

1 40379U 15003D   17324.63199436  .00002657  00000-0  12092-3 0  9997
2 40379  99.1135 177.0125 0139625 212.8504 146.3987 15.13666161154547
Epoch (UTC): 20 November 2017 15:10:04
Eccentricity: 0.0139625
inclination: 99.1135°
perigee height: 428 km
apogee height: 621 km
right ascension of ascending node: 177.0125°
argument of perigee: 212.8504°
revolutions per day: 15.13666161
mean anomaly at epoch: 146.3987°
orbit number at epoch: 15454

The dashed part of the orbit path shows where the satellite is in the earth's shadow,  

DLR